GW0326 Weather Reports


Display with metric or nautical units.
time (UTC)temp
F
wind
direction
speed
MPH
gust
MPH
rain 1hr
in
rain 24hr
in
rain mn
in
humidity
%
barometer
mb
20260904184043 80 139 1.0 11.0 0.00 0.00 0.00 24 1024.2
20260904183545 79 46 2.0 11.0 0.00 0.00 0.00 24 1024.2
20260904183101 79 0 0.0 6.0 0.00 0.00 0.00 24 1024.3
20260904182546 79 63 1.0 19.0 0.00 0.00 0.00 24 1024.4
20260904182042 80 60 4.0 19.0 0.00 0.00 0.00 24 1024.4
20260904181557 80 0 0.0 6.0 0.00 0.00 0.00 21 1024.4
20260904181043 81 0 0.0 9.0 0.00 0.00 0.00 21 1024.5
20260904180544 81 200 0.0 9.0 0.00 0.00 0.00 21 1024.4
20260904180112 80 232 2.0 9.0 0.00 0.00 0.00 22 1024.4
20260904175544 80 342 0.0 8.0 0.00 0.00 0.00 22 1024.5
20260904175043 80 351 3.0 8.0 0.00 0.00 0.00 22 1024.5
20260904174558 79 360 1.0 7.0 0.00 0.00 0.00 23 1024.6
20260904174042 79 0 0.0 7.0 0.00 0.00 0.00 22 1024.7
20260904173543 79 0 0.0 5.0 0.00 0.00 0.00 22 1024.7
20260904173105 79 0 1.0 8.0 0.00 0.00 0.00 22 1024.7
20260904172544 79 0 0.0 13.0 0.00 0.00 0.00 22 1024.7
20260904172043 79 294 2.0 13.0 0.00 0.00 0.00 23 1024.7
20260904171605 78 206 0.0 7.0 0.00 0.00 0.00 24 1024.7
20260904171043 78 0 0.0 7.0 0.00 0.00 0.00 23 1024.7
20260904170545 78 0 0.0 7.0 0.00 0.00 0.00 23 1024.9
20260904170110 78 0 1.0 7.0 0.00 0.00 0.00 23 1024.9
20260904165543 78 250 1.0 7.0 0.00 0.00 0.00 23 1024.9
20260904165046 77 0 1.0 7.0 0.00 0.00 0.00 23 1024.8
20260904164606 78 223 2.0 7.0 0.00 0.00 0.00 23 1024.9
20260904164047 77 242 0.0 8.0 0.00 0.00 0.00 24 1024.7
20260904163545 77 231 1.0 10.0 0.00 0.00 0.00 25 1024.7
20260904163109 77 0 1.0 10.0 0.00 0.00 0.00 25 1024.7
20260904162545 77 0 1.0 8.0 0.00 0.00 0.00 25 1024.6
20260904162044 76 286 1.0 8.0 0.00 0.00 0.00 26 1024.7
20260904161602 76 0 1.0 9.0 0.00 0.00 0.00 25 1024.8
20260904161044 76 276 1.0 9.0 0.00 0.00 0.00 25 1024.7
20260904160544 76 0 1.0 8.0 0.00 0.00 0.00 26 1024.6
20260904160106 75 0 2.0 8.0 0.00 0.00 0.00 27 1024.6
20260904155547 75 234 0.0 10.0 0.00 0.00 0.00 27 1024.7
20260904155045 75 0 1.0 10.0 0.00 0.00 0.00 27 1024.7
20260904154607 75 0 1.0 10.0 0.00 0.00 0.00 27 1024.5
20260904154045 75 0 2.0 8.0 0.00 0.00 0.00 27 1024.5
20260904153545 74 281 1.0 8.0 0.00 0.00 0.00 28 1024.4
20260904153106 74 218 1.0 9.0 0.00 0.00 0.00 28 1024.4
20260904152544 74 0 1.0 9.0 0.00 0.00 0.00 29 1024.4
20260904152048 73 0 1.0 9.0 0.00 0.00 0.00 29 1024.3
20260904151557 73 0 1.0 8.0 0.00 0.00 0.00 30 1024.3
20260904151044 73 215 0.0 8.0 0.00 0.00 0.00 30 1024.4
20260904150548 72 0 1.0 8.0 0.00 0.00 0.00 30 1024.3
20260904150105 72 0 0.0 4.0 0.00 0.00 0.00 30 1024.3
20260904145545 72 275 0.0 4.0 0.00 0.00 0.00 30 1024.3
20260904145044 71 0 0.0 5.0 0.00 0.00 0.00 31 1024.3
20260904144603 71 0 0.0 5.0 0.00 0.00 0.00 31 1024.2
20260904144044 70 0 0.0 9.0 0.00 0.00 0.00 31 1024.2
20260904143545 70 0 1.0 9.0 0.00 0.00 0.00 31 1024.2
20260904143100 70 0 1.0 8.0 0.00 0.00 0.00 31 1024.3
20260904142545 69 0 0.0 7.0 0.00 0.00 0.00 32 1024.2
20260904142047 69 294 1.0 6.0 0.00 0.00 0.00 32 1024.2
20260904141614 68 257 0.0 6.0 0.00 0.00 0.00 32 1024.1
20260904141048 68 0 1.0 7.0 0.00 0.00 0.00 32 1024.1
20260904140545 68 269 1.0 7.0 0.00 0.00 0.00 32 1024.0
20260904140106 67 0 0.0 3.0 0.00 0.00 0.00 33 1023.9
20260904135545 67 0 0.0 4.0 0.00 0.00 0.00 33 1023.8
20260904135045 66 0 0.0 4.0 0.00 0.00 0.00 34 1023.8
20260904134605 66 0 0.0 4.0 0.00 0.00 0.00 34 1023.7
20260904134048 65 0 0.0 4.0 0.00 0.00 0.00 34 1023.6
20260904133545 65 0 0.0 4.0 0.00 0.00 0.00 34 1023.5
20260904133100 64 0 0.0 7.0 0.00 0.00 0.00 35 1023.3
20260904132548 63 0 0.0 7.0 0.00 0.00 0.00 35 1023.2
20260904132050 63 0 0.0 6.0 0.00 0.00 0.00 36 1023.2
20260904131626 62 0 0.0 6.0 0.00 0.00 0.00 37 1023.1
20260904131050 61 0 0.0 3.0 0.00 0.00 0.00 38 1022.9
20260904130545 61 0 0.0 3.0 0.00 0.00 0.00 37 1022.9
20260904130051 61 0 0.0 3.0 0.00 0.00 0.00 38 1022.9
20260904125544 60 300 0.0 3.0 0.00 0.00 0.00 37 1022.9
20260904125044 60 0 0.0 3.0 0.00 0.00 0.00 38 1022.7
20260904124557 60 0 0.0 2.0 0.00 0.00 0.00 38 1022.7
20260904124043 60 0 0.0 3.0 0.00 0.00 0.00 38 1022.7
20260904123544 60 0 0.0 4.0 0.00 0.00 0.00 38 1022.7
20260904123106 60 0 0.0 4.0 0.00 0.00 0.00 38 1022.7
20260904122543 60 0 0.0 2.0 0.00 0.00 0.00 37 1022.7
20260904122043 60 0 0.0 1.0 0.00 0.00 0.00 37 1022.6
20260904121559 60 0 0.0 5.0 0.00 0.00 0.00 37 1022.6
20260904121044 60 0 0.0 5.0 0.00 0.00 0.00 38 1022.5
20260904120543 60 0 0.0 0.0 0.00 0.00 0.00 38 1022.5
20260904120106 60 0 0.0 0.0 0.00 0.00 0.00 38 1022.5
20260904115544 60 0 0.0 2.0 0.00 0.00 0.00 37 1022.4
20260904115044 60 0 0.0 5.0 0.00 0.00 0.00 37 1022.4
20260904114556 60 0 0.0 5.0 0.00 0.00 0.00 37 1022.4
20260904114044 60 0 0.0 5.0 0.00 0.00 0.00 38 1022.4
20260904113544 60 0 0.0 2.0 0.00 0.00 0.00 38 1022.4
20260904113057 60 0 0.0 2.0 0.00 0.00 0.00 38 1022.4
20260904112543 60 0 0.0 2.0 0.00 0.00 0.00 37 1022.4
20260904112043 60 0 0.0 2.0 0.00 0.00 0.00 37 1022.3
20260904111610 60 0 0.0 5.0 0.00 0.00 0.00 37 1022.4
20260904111043 60 0 0.0 5.0 0.00 0.00 0.00 37 1022.3
20260904110542 60 0 0.0 2.0 0.00 0.00 0.00 37 1022.4
20260904110106 60 0 0.0 2.0 0.00 0.00 0.00 37 1022.3
20260904105543 60 0 0.0 0.0 0.00 0.00 0.00 37 1022.3
20260904105044 61 0 0.0 4.0 0.00 0.00 0.00 36 1022.3
20260904104601 61 0 0.0 4.0 0.00 0.00 0.00 36 1022.3
20260904104044 61 0 0.0 7.0 0.00 0.00 0.00 35 1022.2
20260904103542 61 0 0.0 7.0 0.00 0.00 0.00 35 1022.3
20260904103108 61 0 0.0 8.0 0.00 0.00 0.00 36 1022.2
20260904102544 61 0 0.0 8.0 0.00 0.00 0.00 36 1022.3
20260904102044 61 299 0.0 7.0 0.00 0.00 0.00 36 1022.2
20260904101604 61 235 0.0 5.0 0.00 0.00 0.00 36 1022.2
20260904101044 61 0 0.0 5.0 0.00 0.00 0.00 36 1022.2
20260904100548 61 0 0.0 3.0 0.00 0.00 0.00 36 1022.2
20260904100107 61 0 0.0 3.0 0.00 0.00 0.00 36 1022.2
20260904095545 61 0 0.0 5.0 0.00 0.00 0.00 35 1022.2
20260904095045 62 281 0.0 6.0 0.00 0.00 0.00 35 1022.2
20260904094557 62 0 1.0 6.0 0.00 0.00 0.00 35 1022.1
20260904094045 62 292 0.0 3.0 0.00 0.00 0.00 35 1022.1
20260904093544 62 0 0.0 7.0 0.00 0.00 0.00 35 1022.1
20260904093103 62 0 0.0 7.0 0.00 0.00 0.00 35 1022.1
20260904092545 62 0 0.0 8.0 0.00 0.00 0.00 35 1022.0
20260904092045 62 0 0.0 8.0 0.00 0.00 0.00 36 1022.1
20260904091559 62 0 0.0 8.0 0.00 0.00 0.00 35 1022.0
20260904091044 62 0 0.0 8.0 0.00 0.00 0.00 35 1022.0
20260904090544 62 0 1.0 9.0 0.00 0.00 0.00 36 1022.1
20260904090057 61 0 0.0 11.0 0.00 0.00 0.00 36 1022.0
20260904085544 61 0 1.0 11.0 0.00 0.00 0.00 36 1022.1
20260904085045 61 0 1.0 11.0 0.00 0.00 0.00 36 1022.1
20260904084558 61 296 0.0 4.0 0.00 0.00 0.00 36 1022.2
20260904084047 61 271 0.0 5.0 0.00 0.00 0.00 36 1022.1
20260904083545 62 0 0.0 5.0 0.00 0.00 0.00 36 1022.2
20260904083102 62 0 0.0 7.0 0.00 0.00 0.00 35 1022.1
20260904082545 62 0 0.0 7.0 0.00 0.00 0.00 35 1022.1
20260904082045 62 0 0.0 7.0 0.00 0.00 0.00 35 1022.2
20260904081559 62 236 0.0 8.0 0.00 0.00 0.00 35 1022.2
20260904081047 63 0 0.0 8.0 0.00 0.00 0.00 35 1022.1
20260904080547 63 0 0.0 7.0 0.00 0.00 0.00 35 1022.2
20260904080058 63 0 0.0 7.0 0.00 0.00 0.00 35 1022.0
20260904075548 63 239 1.0 7.0 0.00 0.00 0.00 36 1022.2
20260904075047 62 0 0.0 3.0 0.00 0.00 0.00 36 1022.2
20260904074636 62 0 0.0 0.0 0.00 0.00 0.00 37 1022.2
20260904074045 62 0 0.0 1.0 0.00 0.00 0.00 39 1022.1
20260904073545 62 0 0.0 1.0 0.00 0.00 0.00 40 1022.2
20260904073101 62 0 0.0 0.0 0.00 0.00 0.00 40 1022.3
20260904072545 62 0 0.0 4.0 0.00 0.00 0.00 40 1022.2
20260904072044 62 0 0.0 4.0 0.00 0.00 0.00 40 1022.2
20260904071601 62 0 0.0 3.0 0.00 0.00 0.00 41 1022.3
20260904071044 62 0 0.0 0.0 0.00 0.00 0.00 41 1022.3
20260904070550 61 0 0.0 0.0 0.00 0.00 0.00 41 1022.4
20260904070059 62 0 0.0 0.0 0.00 0.00 0.00 42 1022.4
20260904065547 62 0 0.0 0.0 0.00 0.00 0.00 42 1022.3
20260904065045 62 0 0.0 0.0 0.00 0.00 0.00 42 1022.3
20260904064553 62 0 0.0 0.0 0.00 0.00 0.00 42 1022.4
20260904064047 62 0 0.0 0.0 0.00 0.00 0.00 42 1022.5
20260904063545 62 0 0.0 1.0 0.00 0.00 0.00 42 1022.5
20260904063111 62 0 0.0 2.0 0.00 0.00 0.00 41 1022.5
20260904062548 62 0 0.0 4.0 0.00 0.00 0.00 41 1022.4
20260904062049 62 0 0.0 4.0 0.00 0.00 0.00 41 1022.3
20260904061602 62 294 0.0 9.0 0.00 0.00 0.00 41 1022.3
20260904061044 63 0 0.0 9.0 0.00 0.00 0.00 41 1022.4
20260904060548 63 0 0.0 9.0 0.00 0.00 0.00 41 1022.4
20260904060113 62 0 0.0 6.0 0.00 0.00 0.00 41 1022.4
20260904055547 62 0 0.0 5.0 0.00 0.00 0.00 41 1022.3
20260904055044 62 0 0.0 5.0 0.00 0.00 0.00 41 1022.3
20260904054555 62 0 1.0 5.0 0.00 0.00 0.00 41 1022.3
20260904054046 62 0 0.0 7.0 0.00 0.00 0.00 41 1022.3
20260904053547 63 0 0.0 7.0 0.00 0.00 0.00 41 1022.2
20260904053101 63 0 1.0 6.0 0.00 0.00 0.00 41 1022.2
20260904052548 63 0 0.0 7.0 0.00 0.00 0.00 41 1022.2
20260904052047 63 242 0.0 7.0 0.00 0.00 0.00 41 1022.3
20260904051608 63 0 0.0 4.0 0.00 0.00 0.00 41 1022.2
20260904051047 63 0 0.0 8.0 0.00 0.00 0.00 41 1022.2
20260904050547 63 0 0.0 8.0 0.00 0.00 0.00 41 1022.3
20260904050057 63 185 0.0 4.0 0.00 0.00 0.00 41 1022.3
20260904045547 63 0 0.0 5.0 0.00 0.00 0.00 41 1022.3
20260904045046 63 275 0.0 5.0 0.00 0.00 0.00 41 1022.4
20260904044609 63 0 0.0 2.0 0.00 0.00 0.00 41 1022.4
20260904044046 64 0 0.0 2.0 0.00 0.00 0.00 40 1022.4
20260904043545 64 0 0.0 2.0 0.00 0.00 0.00 41 1022.4
20260904043100 64 0 0.0 2.0 0.00 0.00 0.00 40 1022.3
20260904042548 64 0 0.0 1.0 0.00 0.00 0.00 40 1022.4
20260904042048 64 0 0.0 0.0 0.00 0.00 0.00 41 1022.5
20260904041559 64 0 0.0 0.0 0.00 0.00 0.00 41 1022.6
20260904041047 64 0 0.0 1.0 0.00 0.00 0.00 41 1022.5
20260904040547 64 0 0.0 3.0 0.00 0.00 0.00 41 1022.5
20260904040110 64 0 0.0 3.0 0.00 0.00 0.00 41 1022.6
20260904035547 64 0 0.0 0.0 0.00 0.00 0.00 41 1022.7
20260904035051 64 0 0.0 0.0 0.00 0.00 0.00 41 1022.7
20260904034615 63 0 0.0 0.0 0.00 0.00 0.00 41 1022.7
20260904034046 64 0 0.0 0.0 0.00 0.00 0.00 41 1022.7
20260904033547 64 0 0.0 0.0 0.00 0.00 0.00 41 1022.7
20260904033109 64 0 0.0 0.0 0.00 0.00 0.00 41 1022.7
20260904032546 65 0 0.0 0.0 0.00 0.00 0.00 41 1022.7
20260904032045 65 0 0.0 0.0 0.00 0.00 0.00 41 1022.7
20260904031606 66 0 0.0 0.0 0.00 0.00 0.00 40 1022.7
20260904031045 67 0 0.0 0.0 0.00 0.00 0.00 39 1022.7
20260904030551 67 0 0.0 0.0 0.00 0.00 0.00 38 1022.7
20260904030117 68 0 0.0 0.0 0.00 0.00 0.00 37 1022.6
20260904025550 68 0 0.0 0.0 0.00 0.00 0.00 37 1022.5
20260904025047 68 0 0.0 0.0 0.00 0.00 0.00 37 1022.5
20260904024602 68 0 0.0 0.0 0.00 0.00 0.00 36 1022.6
20260904024049 69 0 0.0 0.0 0.00 0.00 0.00 36 1022.6
20260904023544 69 0 0.0 1.0 0.00 0.00 0.00 35 1022.6
20260904023107 69 0 0.0 1.0 0.00 0.00 0.00 35 1022.4
20260904022546 69 0 0.0 4.0 0.00 0.00 0.00 35 1022.3
20260904022046 70 0 0.0 4.0 0.00 0.00 0.00 34 1022.3
20260904021557 70 16 0.0 3.0 0.00 0.00 0.00 33 1022.3
20260904021047 70 27 0.0 2.0 0.00 0.00 0.00 32 1022.2
20260904020547 71 0 0.0 6.0 0.00 0.00 0.00 32 1022.2
20260904020057 71 0 0.0 6.0 0.00 0.00 0.00 31 1022.2
20260904015544 71 0 2.0 6.0 0.00 0.00 0.00 30 1022.2
20260904015046 72 0 0.0 8.0 0.00 0.00 0.00 29 1022.0
20260904014604 72 34 1.0 8.0 0.00 0.00 0.00 29 1022.1
20260904014046 72 0 1.0 9.0 0.00 0.00 0.00 29 1022.0
20260904013547 72 0 0.0 9.0 0.00 0.00 0.00 29 1022.0
20260904013058 73 32 1.0 9.0 0.00 0.00 0.00 28 1022.0
20260904012546 73 41 1.0 3.0 0.00 0.00 0.00 28 1022.0
20260904012048 73 44 0.0 1.0 0.00 0.00 0.00 27 1022.1
20260904011559 73 0 0.0 5.0 0.00 0.00 0.00 27 1022.0
20260904011045 74 0 0.0 5.0 0.00 0.00 0.00 27 1022.0
20260904010546 74 44 0.0 4.0 0.00 0.00 0.00 27 1022.0
20260904010101 74 45 1.0 5.0 0.00 0.00 0.00 27 1022.0
20260904005548 74 0 1.0 6.0 0.00 0.00 0.00 27 1021.9
20260904005049 75 32 2.0 6.0 0.00 0.00 0.00 26 1022.0
20260904004604 75 35 0.0 11.0 0.00 0.00 0.00 26 1022.0
20260904004047 75 35 0.0 11.0 0.00 0.00 0.00 26 1021.9
20260904003545 76 39 5.0 11.0 0.00 0.00 0.00 26 1022.0
20260904003100 76 48 6.0 10.0 0.00 0.00 0.00 26 1021.9
20260904002547 76 43 2.0 7.0 0.00 0.00 0.00 25 1021.9
20260904002051 76 0 1.0 11.0 0.00 0.00 0.00 25 1021.9
20260904001601 77 45 1.0 11.0 0.00 0.00 0.00 24 1021.8
20260904001044 77 31 1.0 11.0 0.00 0.00 0.00 24 1021.8
20260904000546 77 0 1.0 5.0 0.00 0.00 0.00 24 1021.7
20260904000132 77 0 0.0 0.0 0.00 0.00 0.00 24 1021.7
20260903235545 77 0 0.0 0.0 0.00 0.00 0.00 24 1021.7
20260903235049 77 0 0.0 5.0 0.00 0.00 0.00 24 1021.7
20260903234553 78 0 0.0 5.0 0.00 0.00 0.00 23 1021.7
20260903234044 78 0 0.0 3.0 0.00 0.00 0.00 23 1021.7
20260903233547 78 0 0.0 3.0 0.00 0.00 0.00 24 1021.7
20260903233102 78 0 0.0 3.0 0.00 0.00 0.00 24 1021.8
20260903232549 78 0 0.0 11.0 0.00 0.00 0.00 24 1021.7
20260903232045 78 0 2.0 11.0 0.00 0.00 0.00 24 1021.8
20260903231557 78 0 1.0 11.0 0.00 0.00 0.00 24 1021.8
20260903231044 78 47 5.0 11.0 0.00 0.00 0.00 24 1021.8
20260903230544 78 67 0.0 8.0 0.00 0.00 0.00 24 1021.8
20260903225544 78 0 1.0 13.0 0.00 0.00 0.00 24 1021.8
20260903225045 78 42 3.0 13.0 0.00 0.00 0.00 25 1021.9
20260903224610 77 38 3.0 7.0 0.00 0.00 0.00 25 1021.8
20260903224044 77 0 0.0 5.0 0.00 0.00 0.00 26 1021.8
20260903223544 77 0 0.0 5.0 0.00 0.00 0.00 26 1021.8
20260903223059 77 0 0.0 5.0 0.00 0.00 0.00 26 1021.7
20260903222543 77 0 0.0 4.0 0.00 0.00 0.00 25 1021.8
20260903222044 77 67 0.0 4.0 0.00 0.00 0.00 25 1021.8
20260903221556 77 0 0.0 4.0 0.00 0.00 0.00 25 1022.0
20260903221044 78 0 0.0 6.0 0.00 0.00 0.00 25 1022.0
20260903220544 77 0 0.0 6.0 0.00 0.00 0.00 25 1021.9
20260903220106 77 54 0.0 7.0 0.00 0.00 0.00 25 1022.0
20260903215545 78 0 0.0 7.0 0.00 0.00 0.00 24 1022.1
20260903215045 79 74 1.0 7.0 0.00 0.00 0.00 24 1022.0
20260903214553 78 0 0.0 6.0 0.00 0.00 0.00 24 1022.0
20260903214044 78 0 0.0 9.0 0.00 0.00 0.00 25 1022.1
20260903213544 78 142 0.0 9.0 0.00 0.00 0.00 24 1022.1
20260903213101 79 63 1.0 11.0 0.00 0.00 0.00 24 1022.0
20260903212544 79 0 1.0 12.0 0.00 0.00 0.00 24 1022.0
20260903212044 79 43 3.0 12.0 0.00 0.00 0.00 23 1022.1
20260903211617 80 0 0.0 6.0 0.00 0.00 0.00 23 1022.0
20260903211048 79 136 0.0 9.0 0.00 0.00 0.00 24 1022.1
20260903210544 79 0 4.0 10.0 0.00 0.00 0.00 23 1022.2
20260903210059 80 40 1.0 10.0 0.00 0.00 0.00 23 1022.2
20260903205544 79 0 1.0 10.0 0.00 0.00 0.00 24 1022.2
20260903205044 80 59 2.0 10.0 0.00 0.00 0.00 23 1022.2
20260903204603 80 0 1.0 9.0 0.00 0.00 0.00 23 1022.2
20260903204043 80 0 1.0 9.0 0.00 0.00 0.00 24 1022.3
20260903203544 79 58 0.0 9.0 0.00 0.00 0.00 24 1022.3
20260903203100 79 55 1.0 8.0 0.00 0.00 0.00 25 1022.3
20260903202544 79 59 0.0 8.0 0.00 0.00 0.00 24 1022.4
20260903202046 78 78 2.0 14.0 0.00 0.00 0.00 26 1022.3
20260903201553 78 0 1.0 14.0 0.00 0.00 0.00 25 1022.3
20260903201129 78 44 2.0 14.0 0.00 0.00 0.00 25 1022.4
20260903200544 78 0 2.0 9.0 0.00 0.00 0.00 26 1022.4
20260903200101 77 121 1.0 11.0 0.00 0.00 0.00 26 1022.6
20260903195543 77 0 2.0 11.0 0.00 0.00 0.00 26 1022.5
20260903195045 77 126 1.0 14.0 0.00 0.00 0.00 26 1022.7
20260903194559 77 53 3.0 14.0 0.00 0.00 0.00 26 1022.6
20260903194048 78 57 2.0 13.0 0.00 0.00 0.00 26 1022.6
20260903193543 78 67 1.0 13.0 0.00 0.00 0.00 26 1022.7
20260903193055 78 84 2.0 13.0 0.00 0.00 0.00 26 1022.8
20260903192545 78 0 0.0 8.0 0.00 0.00 0.00 25 1022.8
20260903192043 79 0 2.0 8.0 0.00 0.00 0.00 25 1022.8
20260903191600 79 105 0.0 9.0 0.00 0.00 0.00 25 1022.8
20260903191044 78 59 2.0 9.0 0.00 0.00 0.00 26 1022.8
20260903190545 78 0 0.0 10.0 0.00 0.00 0.00 26 1022.8
20260903190059 78 95 0.0 11.0 0.00 0.00 0.00 26 1022.8
20260903185543 77 40 4.0 11.0 0.00 0.00 0.00 26 1022.9
20260903185043 78 132 0.0 5.0 0.00 0.00 0.00 26 1023.0
20260903184602 77 168 0.0 9.0 0.00 0.00 0.00 27 1022.9